Location: Brompton
(51.4000°N, 0.5333°E)
Time: 18:41:57
(UTC+00:00)

Meteor 1-5 Rocket - Pass Details

Date: 11 May 2021
Orbit: 788 x 916 km, 81.2° (Epoch: 15 June)

Event Time Altitude Azimuth Distance (km) Brightness Sun altitude
Rises 20:55:58 0° 347° (NNW) 3,365 8.5 -10.3°
Reaches altitude 10° 20:58:24 10° 349° (N) 2,412 7.6 -10.6°
Maximum altitude 21:03:51 79° 77° (ENE) 819 4.1 -11.2°
Enters shadow 21:08:35 13° 164° (SSE) 2,136 5.7 -11.6°
